Miscellaneous Local Product
Issued by NWS Hastings, NE

Home | Current Version | Previous Version | Graphics & Text | Print | Product List | Glossary On
Versions: 1 2 3 4 5 6 7 8 9 10 11 12 13 14 15 16 17 18 19 20 21 22 23 24 25 26 27 28 29 30 31 32 33 34 35 36 37 38 39 40 41 42 43 44 45 46 47 48 49 50
325
AXUS43 KGID 291402
MISGRI

GID CWA HOURLY WEATHER ROUNDUP
NATIONAL WEATHER SERVICE HASTINGS NE
900 AM CDT SUN MAY 29 2016

NOTE: "FAIR" INDICATES FEW OR NO CLOUDS BELOW 12,000 FEET WITH NO
SIGNIFICANT WEATHER AND/OR OBSTRUCTIONS TO VISIBILITY.

...SOUTH CENTRAL NEBRASKA...

CITY           SKY/WX    TMP DP  RH WIND       PRES   REMARKS
GRAND ISLAND   SUNNY     67  55  65 SW6       30.12R
HASTINGS       MOSUNNY   64  55  72 SW5       30.12R
KEARNEY        SUNNY     64  52  63 CALM      30.13S
ORD            SUNNY     64  56  75 W5        30.10R
YORK           SUNNY     66  57  72 S6        30.11R
AURORA         MOSUNNY   68  58  71 SW7       30.11S
LEXINGTON      SUNNY     62  55  77 NW3       30.13R
HOLDREGE       SUNNY     62  53  74 CALM      30.13S
HEBRON         MOSUNNY   66  58  76 SW5       30.11S

...NEBRASKA PANHANDLE...

CITY           SKY/WX    TMP DP  RH WIND       PRES   REMARKS
CHADRON        SUNNY     51  46  83 CALM      30.12R
ALLIANCE       SUNNY     53  51  93 CALM      30.11S
SCOTTSBLUFF    SUNNY     55  47  74 W6        30.12S
SIDNEY         SUNNY     57  47  69 S13       30.15R

...WESTERN AND NORTH CENTRAL NEBRASKA...

CITY           SKY/WX    TMP DP  RH WIND       PRES   REMARKS
VALENTINE      SUNNY     58  51  78 SW7       30.11R
AINSWORTH      SUNNY     61  53  74 W6        30.12R
ONEILL         SUNNY     66  55  68 SW3       30.09R
BROKEN BOW     MOSUNNY   61  56  83 SW3       30.13R
IMPERIAL       SUNNY     59  50  72 CALM      30.14R
NORTH PLATTE   SUNNY     60  53  77 CALM      30.14R
MCCOOK         SUNNY     61  53  75 NE3       30.13R

...EASTERN NEBRASKA...

CITY           SKY/WX    TMP DP  RH WIND       PRES   REMARKS
NORFOLK        MOSUNNY   65  57  75 CALM      30.09R
SO SIOUX CITY  SUNNY     67  60  78 SW8       30.07R
TEKAMAH        CLOUDY    62  57  83 S5        30.08R
COLUMBUS       SUNNY     64  54  68 S5        30.11R
ALBION         SUNNY     66  55  69 SW6       30.10R
OMAHA EPPLEY   PTSUNNY   66  60  81 CALM      30.09R
OFFUTT AFB     SUNNY     65  59  81 CALM      30.09R
MILLARD        SUNNY     65  58  77 CALM      30.09R
LINCOLN        PTSUNNY   66  58  75 S7        30.10R
NEBRASKA CITY  CLOUDY    67  58  73 S6        30.10R
BEATRICE       SUNNY     67  58  73 SW7       30.11R
FALLS CITY     MOSUNNY   70  61  73 CALM      30.09R

...NORTHERN KANSAS...

CITY           SKY/WX    TMP DP  RH WIND       PRES   REMARKS
GOODLAND       SUNNY     64  51  62 S10       30.14R
HILL CITY      SUNNY     69  56  62 SW5       30.12S
NORTON         SUNNY     64  52  63 W5        30.12R
PHILLIPSBURG   MOSUNNY   70  55  60 CALM      30.12R
SMITH CENTER   PTSUNNY   68  57  68 SW5       30.13R
BELOIT         MOSUNNY   64  57  77 CALM      30.12R
HAYS           CLOUDY    70  55  60 SW7       30.11S
RUSSELL        MOSUNNY   69  60  73 SW8       30.10R
CONCORDIA      LGT RAIN  65  58  78 W7        30.13R
SALINA         SUNNY     74  63  68 SW9       30.12R
TOPEKA         SUNNY     73  61  65 W3        30.10R



USA.gov is the U.S. government's official web portal to all federal, state and local government web resources and services.